Starlink 5819

operational
NORAD ID: 55780 Int'l Des: 2023-028 Owner: SPXS Country: US Constellation: starlink
LEOCIRCULAR

About Starlink 5819

Description loading...

Live Position

Loading 3D Globe...

Upcoming Passes

Altitude History

Altitude vs Time

uPlot chart will show altitude changes over time

Two-Line Element Set

1 55780U 23028AR 25354.48782567 .00000151 00000-0 20416-4 0 9990
2 55780 70.0006 63.9847 0002848 265.8687 94.2146 14.98333145154671
Epoch: Dec 20, 2025 • Age: 14 hours

Current Status

Altitude 579.0 km
Velocity 7.57 km/s
Sub-Earth Point -21.48°S, 66.01°W
Launch Date Mar 3, 2023
Age 2.8 years
Type internet

Technical Details

Classification Payload
Mass 305.00 kg
Dry Mass 290.00 kg
Total Mass 305.00 kg
Length 0.20 m
Diameter 2.80 m
Span 9.00 m
Shape Box + pan
Manufacturer SPXS
Bus Type Starlink
Phase Status In Orbit
Owner/State SPXS/US

Large Constellations

Loading constellations...